Ketchikan, AK

9:58 AM AKST on November 13, 2018 (GMT -0900)
Ketchikan International

Weather History for PAKT - September, 2017

Change the Weather History Date:

Friday, September 22, 2017

  Actual Average Record
Temperature  
Mean Temperature 53 °F -  
Max Temperature 55 °F 59 °F 73 °F (1952)
Min Temperature 51 °F 46 °F 34 °F (2003)
Degree Days  
Heating Degree Days 12    
Growing Degree Days 3 (Base 50)    
Moisture  
Dew Point 51 °F    
Average Humidity 95    
Maximum Humidity 97    
Minimum Humidity 93    
Precipitation  
Precipitation 0.64 in - - ()
Sea Level Pressure  
Sea Level Pressure 30.05 in    
Wind  
Wind Speed 6 mph (SE)    
Max Wind Speed 13 mph    
Max Gust Speed -    
Visibility 6 miles    
Events Rain    
Averages and records for this station are not official NWS values.
T = Trace of Precipitation, MM = Missing Value Source: NWS Daily Summary

Daily Weather History Graph

Daily Weather History Graph

Search for Another Location

Airport or City:

Astronomy

Sep. 22, 2017 Rise Set
Actual Time 6:33 AM AKDT 6:44 PM AKDT
Civil Twilight 5:56 AM AKDT 7:20 PM AKDT
Nautical Twilight 5:12 AM AKDT 8:04 PM AKDT
Astronomical Twilight 4:26 AM AKDT 8:50 PM AKDT
Moon 9:19 AM AKDT (9/22) 8:05 PM AKDT (9/22)
Length of Visible Light 13h 24m
Length of Day
12h 11m
Waxing Crescent, 7% of the Moon is Illuminated
Sep 22
Waxing Crescent
Sep 27
First Quarter
Oct 5
Full
Oct 12
Last Quarter
Oct 19
New

Hourly Weather History & Observations

Time (AKDT) Temp. Dew Point Humidity Pressure Visibility Wind Dir Wind Speed Gust Speed Precip Events Conditions
12:18 AM 53.1 °F 52.0 °F 96% 30.10 in 3.0 mi Calm Calm - 0.05 in Rain Rain
12:27 AM 53.1 °F 52.0 °F 96% 30.10 in 3.0 mi Calm Calm - 0.07 in Rain Rain
12:53 AM 53.1 °F 52.0 °F 96% 30.10 in 3.0 mi NNW 5.8 mph - 0.13 in Rain Rain
1:53 AM 52.0 °F 51.1 °F 97% 30.10 in 2.5 mi Calm Calm - 0.18 in Rain Heavy Rain
2:07 AM 52.0 °F 51.1 °F 97% 30.08 in 4.0 mi SE 8.1 mph - 0.05 in Rain Rain
2:26 AM 52.0 °F 51.1 °F 97% 30.08 in 6.0 mi SE 10.4 mph - 0.08 in Rain Rain
2:39 AM 52.0 °F 51.1 °F 97% 30.08 in 6.0 mi SE 10.4 mph - 0.10 in Rain Light Rain
2:53 AM 52.0 °F 50.0 °F 93% 30.09 in 5.0 mi SE 10.4 mph - 0.12 in Rain Rain
3:48 AM 51.8 °F 50.0 °F 94% 30.07 in 7.0 mi ESE 12.7 mph - 0.08 in Rain Light Rain
3:53 AM 52.0 °F 50.0 °F 93% 30.08 in 5.0 mi ESE 11.5 mph - 0.08 in Rain Light Rain
4:12 AM 52.0 °F 50.0 °F 93% 30.07 in 4.0 mi ESE 12.7 mph - 0.00 in Rain Light Rain
4:31 AM 52.0 °F 50.0 °F 93% 30.07 in 7.0 mi ESE 9.2 mph - 0.00 in Rain Light Rain
4:51 AM 51.8 °F 50.0 °F 94% 30.07 in 2.5 mi ESE 11.5 mph - 0.01 in Rain Light Rain
4:53 AM 52.0 °F 50.0 °F 93% 30.06 in 3.0 mi ESE 9.2 mph - 0.01 in Rain Light Rain
5:53 AM 51.1 °F 50.0 °F 96% 30.06 in 7.0 mi SE 11.5 mph - 0.05 in Rain Light Rain
6:09 AM 51.1 °F 50.0 °F 96% 30.05 in 7.0 mi SE 11.5 mph - 0.00 in Rain Light Rain
6:20 AM 51.8 °F 50.0 °F 94% 30.05 in 4.0 mi SE 9.2 mph - N/A Rain Light Rain
6:53 AM 51.8 °F 50.0 °F 94% 30.05 in 3.0 mi SE 9.2 mph - N/A Rain Light Rain
6:57 AM 51.1 °F 50.0 °F 96% 30.05 in 1.8 mi SE 8.1 mph - 0.01 in Rain Light Rain
6:59 AM 51.1 °F 50.0 °F 96% 30.05 in 3.0 mi SE 8.1 mph - 0.02 in Rain Rain
7:53 AM 51.8 °F 50.0 °F 94% 30.05 in 5.0 mi SE 10.4 mph - N/A Rain Light Rain
8:53 AM 51.8 °F 50.0 °F 94% 30.04 in 3.0 mi SSE 9.2 mph - N/A Rain Light Rain
8:56 AM 51.1 °F 50.0 °F 96% 30.04 in 2.5 mi SSE 8.1 mph - 0.01 in Rain Light Rain
8:58 AM 51.1 °F 50.0 °F 96% 30.04 in 3.0 mi SSE 9.2 mph - 0.01 in Rain Light Rain
9:53 AM 52.0 °F 51.1 °F 97% 30.04 in 3.0 mi SSE 6.9 mph - 0.04 in Rain Light Rain
10:00 AM 52.0 °F 51.1 °F 97% 30.04 in 3.0 mi SSE 8.1 mph - 0.00 in   Overcast
10:09 AM 52.0 °F 51.1 °F 97% 30.04 in 4.0 mi SSE 6.9 mph - 0.00 in   Overcast
10:53 AM 52.0 °F 51.1 °F 97% 30.04 in 3.0 mi SSE 6.9 mph - 0.02 in Rain Light Rain
11:53 AM 53.1 °F 52.0 °F 96% 30.04 in 4.0 mi SSE 9.2 mph - 0.01 in   Overcast
12:53 PM 53.6 °F 51.8 °F 94% 30.04 in 6.0 mi SSE 9.2 mph - N/A   Overcast
1:53 PM 54.0 °F 52.0 °F 93% 30.04 in 10.0 mi SE 10.4 mph - N/A   Overcast
2:53 PM 55.0 °F 53.1 °F 93% 30.04 in 10.0 mi Variable 4.6 mph - N/A   Overcast
3:53 PM 55.0 °F 53.1 °F 93% 30.04 in 10.0 mi SSE 8.1 mph - N/A   Overcast
4:53 PM 54.0 °F 52.0 °F 93% 30.04 in 4.0 mi SSE 5.8 mph - 0.00 in Rain Light Rain
5:53 PM 54.0 °F 53.1 °F 97% 30.05 in 10.0 mi SE 5.8 mph - 0.00 in   Overcast
6:53 PM 54.0 °F 52.0 °F 93% 30.04 in 10.0 mi SSE 4.6 mph - N/A   Overcast
7:22 PM 54.0 °F 52.0 °F 93% 30.03 in 10.0 mi SSE 4.6 mph - N/A   Overcast
7:53 PM 54.0 °F 52.0 °F 93% 30.04 in 10.0 mi SE 3.5 mph - N/A   Overcast
8:53 PM 54.0 °F 52.0 °F 93% 30.03 in 10.0 mi SSE 3.5 mph - N/A   Overcast
9:26 PM 54.0 °F 52.0 °F 93% 30.02 in 10.0 mi SE 3.5 mph - N/A   Overcast
9:53 PM 54.0 °F 52.0 °F 93% 30.02 in 10.0 mi SSE 3.5 mph - N/A   Overcast
10:08 PM 54.0 °F 52.0 °F 93% 30.02 in 10.0 mi SSE 3.5 mph - N/A   Overcast
10:24 PM 54.0 °F 53.1 °F 97% 30.02 in 10.0 mi SE 3.5 mph - N/A   Overcast
10:53 PM 54.0 °F 53.1 °F 97% 30.03 in 10.0 mi SSE 4.6 mph - N/A   Overcast
11:10 PM 54.0 °F 53.1 °F 97% 30.02 in 10.0 mi SSE 4.6 mph - N/A   Overcast
11:17 PM 54.0 °F 53.1 °F 97% 30.02 in 10.0 mi SSE 4.6 mph - N/A   Overcast
11:39 PM 54.0 °F 53.1 °F 97% 30.02 in 10.0 mi SSE 3.5 mph - N/A   Overcast
11:53 PM 54.0 °F 53.1 °F 97% 30.03 in 10.0 mi SSE 3.5 mph - N/A   Overcast